Weather History for KPDK - December, 2012

Change the Weather History Date:

Wednesday, December 5, 2012

  Actual Average Record
Temperature  
Mean Temperature 58 °F 47 °F  
Max Temperature 66 °F 57 °F - ()
Min Temperature 51 °F 37 °F - ()
Degree Days  
Heating Degree Days 6 18  
Month to date heating degree days 88  
Since 1 July heating degree days 615  
Growing Degree Days 8 (Base 50)    
Moisture  
Dew Point 54 °F    
Average Humidity 83    
Maximum Humidity 96    
Minimum Humidity 65    
Precipitation  
Precipitation 0.00 in 0.16 in - ()
Month to date precipitation 0.86  
Year to date precipitation 49.67  
Sea Level Pressure  
Sea Level Pressure 30.16 in    
Wind  
Wind Speed 3 mph (WNW)    
Max Wind Speed 10 mph    
Max Gust Speed -    
Visibility 10 miles    
Events      
T = Trace of Precipitation, MM = Missing Value Source: NWS Daily Summary

Daily Weather History Graph

Daily Weather History Graph

Search for Another Location

Airport or City:

Trip Planner

Search our weather history database for the weather conditions in past years. The results will help you decide how hot, cold, wet, or windy it might be!

Date:

Astronomy

Dec. 05, 2012 Rise Set
Actual Time 7:27 AM EST 5:28 PM EST
Civil Twilight 7:00 AM EST 5:55 PM EST
Nautical Twilight 6:29 AM EST 6:26 PM EST
Astronomical Twilight 5:59 AM EST 6:56 PM EST
Moon No Moon Rise 12:03 PM EST (12/5)
Length of Visible Light 10h 55m
Length of Day
10h 00m
Waning Gibbous, 60% of the Moon is Illuminated
Dec 5
Waning Gibbous
Dec 6
Last Quarter
Dec 13
New
Dec 20
First Quarter
Dec 28
Full

Hourly Weather History & Observations

Time (EST) Temp. Dew Point Humidity Pressure Visibility Wind Dir Wind Speed Gust Speed Precip Events Conditions
12:53 AM 51.1 °F 50.0 °F 96% 30.19 in 10.0 mi Calm Calm - N/A   Clear
1:53 AM 51.1 °F 50.0 °F 96% 30.19 in 10.0 mi Calm Calm - N/A   Clear
2:53 AM 53.1 °F 52.0 °F 96% 30.18 in 10.0 mi Calm Calm - N/A   Overcast
3:53 AM 55.0 °F 53.1 °F 93% 30.17 in 10.0 mi Calm Calm - N/A   Overcast
4:53 AM 55.9 °F 52.0 °F 87% 30.16 in 10.0 mi Calm Calm - N/A   Overcast
5:53 AM 55.9 °F 53.1 °F 90% 30.17 in 10.0 mi Calm Calm - N/A   Overcast
6:53 AM 59.0 °F 54.0 °F 83% 30.19 in 10.0 mi Calm Calm - N/A   Overcast
7:53 AM 57.0 °F 54.0 °F 89% 30.20 in 10.0 mi South 3.5 mph - N/A   Overcast
9:53 AM 62.1 °F 55.0 °F 78% 30.22 in 10.0 mi WNW 4.6 mph - N/A   Overcast
10:53 AM 64.0 °F 57.0 °F 78% 30.22 in 10.0 mi NW 6.9 mph - N/A   Overcast
11:41 AM 64.4 °F 57.2 °F 77% 30.21 in 10.0 mi WNW 6.9 mph - N/A   Overcast
11:53 AM 66.0 °F 57.0 °F 73% 30.19 in 10.0 mi Variable 5.8 mph - N/A   Overcast
12:53 PM 66.0 °F 55.0 °F 68% 30.17 in 10.0 mi NW 10.4 mph - N/A   Overcast
1:53 PM 64.9 °F 55.0 °F 70% 30.15 in 10.0 mi NW 9.2 mph - N/A   Overcast
2:53 PM 64.9 °F 53.1 °F 65% 30.13 in 10.0 mi WNW 10.4 mph - N/A   Overcast
3:53 PM 64.9 °F 54.0 °F 68% 30.12 in 10.0 mi WNW 4.6 mph - N/A   Overcast
4:53 PM 64.0 °F 54.0 °F 70% 30.12 in 10.0 mi WNW 6.9 mph - N/A   Overcast
5:53 PM 61.0 °F 55.0 °F 81% 30.13 in 10.0 mi WNW 5.8 mph - N/A   Partly Cloudy
6:53 PM 61.0 °F 55.0 °F 81% 30.14 in 10.0 mi WNW 4.6 mph - N/A   Clear
7:53 PM 57.9 °F 55.0 °F 90% 30.15 in 10.0 mi NW 4.6 mph - N/A   Partly Cloudy
8:53 PM 57.0 °F 54.0 °F 89% 30.15 in 10.0 mi Calm Calm - N/A   Clear
9:53 PM 55.9 °F 54.0 °F 93% 30.14 in 10.0 mi West 3.5 mph - N/A   Overcast
10:53 PM 55.9 °F 52.0 °F 87% 30.14 in 10.0 mi Calm Calm - N/A   Overcast
11:53 PM 57.0 °F 52.0 °F 83% 30.13 in 10.0 mi Calm Calm - N/A   Overcast